User: anonymous   Login
Location: Claremont
(33.9858°S, 18.4575°E)
Time: 16:44:25
(UTC+00:00)
Language:

H-2A R/B - Orbit

View from above orbital plane
View from above orbital plane
View from above satellite
View from above satellite

Ground track
Ground track

The orbit data is extracted from the following two-line orbital elements,

1 27601U 02056E   21127.95032084 -.00000017  00000-0  83096-5 0  9993
2 27601  98.1926 152.4253 0072772  31.6566  30.5351 14.31991547961138
Epoch (UTC): 07 May 2021 22:48:27
Eccentricity: 0.0072772
inclination: 98.1926°
perigee height: 733 km
apogee height: 837 km
right ascension of ascending node: 152.4253°
argument of perigee: 31.6566°
revolutions per day: 14.31991547
mean anomaly at epoch: 30.5351°
orbit number at epoch: 96113

The dashed part of the orbit path shows where the satellite is in the earth's shadow,  

DLR